This demonstration page uses our WeatherBlox Daily Observations layout. Learn more.

Left ArrowRight Arrow

Hourly Observations for May 22, 2019

Temp ( °F °C ) Dew Point ( °F °C ) Humidity (%) Winds ( mph kmh ) Pressure ( in mb ) Visibility ( mi km ) Precip ( " mm )
12:00 am 00:00 Cloudy with Light Rain 54 12.2 51 10.6 90 90 ESE 9 15 29.35 994 6 10 0.01 0.25
12:52 am 00:52 Mostly Cloudy 54 12.2 49 9.4 83 83 SSE 7 11 29.34 994 10 16 0.01 0.25
1:52 am 01:52 Cloudy 53 11.7 50 10 89 89 SSE 9 15 29.36 994 10 16 0.00 0.00
2:52 am 02:52 Partly Cloudy 56 13.3 50 10 81 81 S 13 20 29.37 995 10 16 0.00 0.00
3:52 am 03:52 Mostly Cloudy 55 12.8 50 10 83 83 S 18 30 29.39 995 10 16 0.00 0.00
4:52 am 04:52 Cloudy 55 12.8 49 9.4 80 80 S 16 26 29.42 996 10 16 0.00 0.00
5:52 am 05:52 Cloudy 54 12.2 47 8.3 77 77 SSW 18 30 29.44 997 10 16 0.00 0.00
6:52 am 06:52 Cloudy 53 11.7 47 8.3 80 80 SSW 20 31 29.48 998 10 16 0.00 0.00
7:52 am 07:52 Mostly Cloudy 52 11.1 44 6.7 75 75 SSW 17 28 29.53 1000 10 16 0.00 0.00
8:28 am 08:28 Partly Cloudy 52 11.1 43 6.1 72 72 SSW 20 31 29.56 1001 10 16 0.00 0.00
8:52 am 08:52 Partly Cloudy 53 11.7 43 6.1 69 69 SSW 18 30 29.56 1001 10 16 0.00 0.00
9:52 am 09:52 Partly Cloudy 55 12.8 43 6.1 64 64 SSW 17 28 29.59 1002 10 16 0.00 0.00
10:52 am 10:52 Partly Cloudy 58 14.4 43 6.1 58 58 SSW 18 30 29.62 1003 10 16 0.00 0.00
11:52 am 11:52 Partly Cloudy 62 16.7 45 7.2 54 54 SSW 18 30 29.64 1004 10 16 0.00 0.00
12:52 pm 12:52 Partly Cloudy 64 17.8 45 7.2 50 50 SSW 18 30 29.65 1004 10 16 0.00 0.00
1:52 pm 13:52 Partly Cloudy 67 19.4 44 6.7 44 44 SSW 20 31 29.67 1005 10 16 0.00 0.00
2:52 pm 14:52 Partly Cloudy 69 20.6 45 7.2 42 42 SW 21 33 29.68 1005 10 16 0.00 0.00
3:52 pm 15:52 Partly Cloudy 69 20.6 44 6.7 41 41 SW 20 31 29.70 1006 10 16 0.00 0.00
4:52 pm 16:52 Mostly Cloudy 70 21.1 44 6.7 39 39 WSW 18 30 29.72 1006 10 16 0.00 0.00
5:52 pm 17:52 Mostly Cloudy 69 20.6 44 6.7 41 41 WSW 17 28 29.75 1007 10 16 0.00 0.00
6:52 pm 18:52 Mostly Cloudy 69 20.6 46 7.8 44 44 W 15 24 29.78 1008 10 16 0.00 0.00
7:52 pm 19:52 Mostly Cloudy 67 19.4 46 7.8 47 47 W 13 20 29.81 1009 10 16 0.00 0.00
8:52 pm 20:52 Partly Cloudy 63 17.2 46 7.8 54 54 WNW 6 9 29.84 1010 10 16 0.00 0.00
9:52 pm 21:52 Partly Cloudy 62 16.7 45 7.2 54 54 WSW 7 11 29.88 1012 10 16 0.00 0.00
10:52 pm 22:52 Partly Cloudy 59 15 45 7.2 60 60 W 6 9 29.90 1013 10 16 0.00 0.00
11:52 pm 23:52 Mostly Clear 58 14.4 45 7.2 62 62 W 6 9 29.92 1013 10 16 0.00 0.00

Powered by AerisWeather